Location: Observatoire
(46.1952°N, 5.3391°E)
Time: 21:16:14
(UTC+02:00)

FO-29 - Visible Passes

Search period start: 22 April 2024 00:00
Search period end: 02 May 2024 00:00
Orbit: 800 x 1321 km, 98.6° (Epoch: 21 April)

Date Brightness Start Highest point End Pass type
(mag) Time Alt. Az. Time Alt. Az. Time Alt. Az.
22 Apr 11.2 02:32:35 10° NNE 02:39:22 34° E 02:42:08 27° SE visible
22 Apr 10.2 04:17:16 10° N 04:24:39 61° WNW 04:28:37 31° SW visible
22 Apr 11.7 06:04:14 10° NNW 06:08:18 16° NW 06:12:28 10° W visible
23 Apr 12.0 01:39:34 10° NE 01:43:28 14° E 01:46:25 12° ESE visible
23 Apr 10.2 03:22:03 10° NNE 03:29:40 68° ESE 03:32:54 39° S visible
23 Apr 11.0 05:07:44 10° N 05:14:09 32° WNW 05:19:23 15° WSW visible
24 Apr 11.3 02:27:30 10° NNE 02:34:14 32° E 02:37:11 25° SE visible
24 Apr 10.2 04:12:04 10° N 04:19:34 64° WNW 04:23:40 31° SW visible
24 Apr 11.7 05:58:52 10° NNW 06:03:15 17° NW 06:07:46 10° W visible
25 Apr 12.1 01:34:45 10° NE 01:38:16 13° E 01:41:28 11° ESE visible
25 Apr 10.3 03:16:55 10° NNE 03:24:34 65° E 03:27:57 37° SSE visible
25 Apr 11.0 05:02:30 10° N 05:09:06 34° WNW 05:14:25 16° WSW visible
26 Apr 11.3 02:22:26 10° NNE 02:29:05 30° E 02:32:13 23° SE visible
26 Apr 10.2 04:06:53 10° N 04:14:31 68° WNW 04:18:42 30° SW visible
26 Apr 11.6 05:53:33 10° NNW 05:58:14 18° NW 06:03:02 10° W visible
27 Apr 12.1 01:30:02 10° ENE 01:33:03 12° E 01:36:04 10° ESE visible
27 Apr 10.4 03:11:47 10° NNE 03:19:28 61° E 03:22:58 35° SSE visible
27 Apr 10.9 04:57:17 10° N 05:04:03 36° WNW 05:09:27 16° WSW visible
28 Apr 11.4 02:17:23 10° NNE 02:23:56 29° E 02:27:14 22° SE visible
28 Apr 10.1 04:01:43 10° N 04:09:26 71° WNW 04:13:43 30° SSW visible
28 Apr 11.6 05:48:14 10° N 05:53:13 19° NW 05:58:15 10° W visible
29 Apr 12.2 01:25:27 10° ENE 01:27:50 11° E 01:30:12 10° E visible
29 Apr 10.5 03:06:40 10° NNE 03:14:22 58° E 03:17:58 33° SSE visible
29 Apr 10.8 04:52:05 10° N 04:59:01 38° WNW 05:04:27 16° WSW visible
30 Apr 11.5 02:12:22 10° NE 02:18:46 27° E 02:22:13 20° SE visible
30 Apr 10.1 03:56:34 10° N 04:04:22 75° WNW 04:08:43 30° SSW visible
30 Apr 11.6 05:42:57 10° N 05:48:11 20° NW 05:53:26 10° W visible
01 May 12.2 01:21:15 10° ENE 01:22:36 10° ENE 01:23:57 10° E visible
01 May 10.5 03:01:34 10° NNE 03:09:15 55° E 03:12:58 31° SSE visible
01 May 10.8 04:46:54 10° N 04:53:58 40° WNW 04:59:27 17° WSW visible
